| time (UTC) | temp F | wind direction | speed MPH | gust MPH | rain 1hr in | rain 24hr in | rain mn in | humidity % | barometer mb |
| 20260507044011 | 33 | 112 | 0.0 | 0.0 | 0.00 | 0.00 | 0.00 | 90 | 1011.5 |
| 20260507043511 | 33 | 112 | 0.0 | 0.0 | 0.00 | 0.00 | 0.00 | 90 | 1011.4 |
| 20260507043011 | 33 | 112 | 0.0 | 0.0 | 0.00 | 0.00 | 0.00 | 90 | 1011.1 |
| 20260507042511 | 33 | 112 | 0.0 | 0.0 | 0.00 | 0.00 | 0.00 | 90 | 1011.3 |
| 20260507042012 | 33 | 112 | 0.0 | 0.0 | 0.00 | 0.00 | 0.00 | 90 | 1011.4 |
| 20260507041512 | 33 | 112 | 0.0 | 0.0 | 0.00 | 0.00 | 0.00 | 90 | 1011.4 |
| 20260507041011 | 33 | 112 | 0.0 | 0.0 | 0.00 | 0.00 | 0.00 | 90 | 1011.5 |
| 20260507040514 | 33 | 112 | 0.0 | 0.0 | 0.00 | 0.00 | 0.00 | 90 | 1011.5 |
| 20260507040011 | 33 | 112 | 0.0 | 0.0 | 0.00 | 0.00 | 0.00 | 90 | 1011.5 |
| 20260507035512 | 33 | 112 | 0.0 | 0.0 | 0.00 | 0.00 | 0.00 | 90 | 1011.5 |
| 20260507035011 | 33 | 112 | 0.0 | 0.0 | 0.00 | 0.00 | 0.00 | 90 | 1011.5 |
| 20260507034511 | 33 | 112 | 0.0 | 0.0 | 0.00 | 0.00 | 0.00 | 90 | 1011.7 |
| 20260507034012 | 33 | 112 | 0.0 | 0.0 | 0.00 | 0.00 | 0.00 | 90 | 1011.6 |
| 20260507033511 | 33 | 112 | 0.0 | 0.0 | 0.00 | 0.00 | 0.00 | 90 | 1011.6 |
| 20260507033011 | 33 | 112 | 0.0 | 0.0 | 0.00 | 0.00 | 0.00 | 90 | 1011.6 |
| 20260507032510 | 34 | 112 | 0.0 | 0.0 | 0.00 | 0.00 | 0.00 | 89 | 1011.6 |
| 20260507032011 | 34 | 112 | 0.0 | 0.0 | 0.00 | 0.00 | 0.00 | 89 | 1011.6 |
| 20260507031511 | 34 | 112 | 0.0 | 0.0 | 0.00 | 0.00 | 0.00 | 89 | 1011.8 |
| 20260507031011 | 34 | 112 | 0.0 | 0.0 | 0.00 | 0.00 | 0.00 | 89 | 1011.7 |
| 20260507030511 | 34 | 112 | 0.0 | 0.0 | 0.00 | 0.00 | 0.00 | 89 | 1011.7 |
| 20260507030011 | 34 | 112 | 0.0 | 0.0 | 0.00 | 0.00 | 0.00 | 89 | 1011.6 |
| 20260507025511 | 34 | 112 | 0.0 | 0.0 | 0.00 | 0.00 | 0.00 | 89 | 1011.7 |
| 20260507025011 | 34 | 112 | 0.0 | 0.0 | 0.00 | 0.00 | 0.00 | 89 | 1011.6 |
| 20260507024512 | 34 | 112 | 0.0 | 0.0 | 0.00 | 0.00 | 0.00 | 89 | 1011.5 |
| 20260507024011 | 34 | 112 | 0.0 | 0.0 | 0.00 | 0.00 | 0.00 | 89 | 1011.5 |
| 20260507023512 | 34 | 103 | 0.0 | 0.0 | 0.00 | 0.00 | 0.00 | 90 | 1011.5 |
| 20260507023011 | 35 | 112 | 0.0 | 0.0 | 0.00 | 0.00 | 0.00 | 90 | 1011.8 |
| 20260507022512 | 35 | 112 | 0.0 | 0.0 | 0.00 | 0.00 | 0.00 | 90 | 1011.7 |
| 20260507022013 | 35 | 112 | 0.0 | 0.0 | 0.00 | 0.00 | 0.00 | 90 | 1011.8 |
| 20260507021513 | 35 | 112 | 0.0 | 0.0 | 0.00 | 0.00 | 0.00 | 90 | 1011.8 |
| 20260507021014 | 35 | 112 | 0.0 | 0.0 | 0.00 | 0.00 | 0.00 | 90 | 1011.8 |
| 20260507020514 | 35 | 112 | 0.0 | 0.0 | 0.00 | 0.00 | 0.00 | 90 | 1011.9 |
| 20260507020012 | 35 | 112 | 0.0 | 0.0 | 0.00 | 0.00 | 0.00 | 90 | 1011.8 |
| 20260507015512 | 35 | 112 | 0.0 | 0.0 | 0.00 | 0.00 | 0.00 | 89 | 1011.8 |
| 20260507015011 | 35 | 112 | 0.0 | 0.0 | 0.00 | 0.00 | 0.00 | 89 | 1012.0 |
| 20260507014511 | 35 | 112 | 0.0 | 1.0 | 0.00 | 0.00 | 0.00 | 89 | 1011.9 |
| 20260507014010 | 35 | 112 | 0.0 | 0.0 | 0.00 | 0.00 | 0.00 | 89 | 1012.1 |
| 20260507013512 | 35 | 112 | 0.0 | 0.0 | 0.00 | 0.00 | 0.00 | 89 | 1012.1 |
| 20260507013011 | 35 | 112 | 0.0 | 0.0 | 0.00 | 0.00 | 0.00 | 89 | 1012.1 |
| 20260507012511 | 36 | 112 | 0.0 | 0.0 | 0.00 | 0.00 | 0.00 | 89 | 1012.1 |
| 20260507012011 | 36 | 112 | 0.0 | 0.0 | 0.00 | 0.00 | 0.00 | 89 | 1012.1 |
| 20260507011510 | 36 | 112 | 0.0 | 0.0 | 0.00 | 0.00 | 0.00 | 89 | 1012.1 |
| 20260507011011 | 36 | 112 | 0.0 | 0.0 | 0.00 | 0.00 | 0.00 | 89 | 1012.1 |
| 20260507010511 | 36 | 112 | 0.0 | 0.0 | 0.00 | 0.00 | 0.00 | 89 | 1012.1 |
| 20260507010011 | 36 | 112 | 0.0 | 0.0 | 0.00 | 0.00 | 0.00 | 89 | 1012.2 |
| 20260507005511 | 36 | 112 | 0.0 | 0.0 | 0.00 | 0.00 | 0.00 | 89 | 1012.2 |
| 20260507005012 | 36 | 112 | 0.0 | 0.0 | 0.00 | 0.00 | 0.00 | 89 | 1012.3 |
| 20260507004511 | 36 | 112 | 0.0 | 0.0 | 0.00 | 0.00 | 0.00 | 89 | 1012.2 |
| 20260507004011 | 37 | 112 | 0.0 | 0.0 | 0.00 | 0.00 | 0.00 | 89 | 1012.5 |
| 20260507003510 | 37 | 112 | 0.0 | 0.0 | 0.00 | 0.00 | 0.00 | 89 | 1012.3 |
| 20260507003011 | 37 | 112 | 0.0 | 0.0 | 0.00 | 0.00 | 0.00 | 89 | 1012.5 |
| 20260507002511 | 37 | 112 | 0.0 | 0.0 | 0.00 | 0.00 | 0.00 | 89 | 1012.5 |
| 20260507002011 | 37 | 112 | 0.0 | 0.0 | 0.00 | 0.00 | 0.00 | 89 | 1012.5 |
| 20260507001511 | 37 | 112 | 0.0 | 0.0 | 0.00 | 0.00 | 0.00 | 89 | 1012.3 |
| 20260507001011 | 37 | 90 | 0.0 | 0.0 | 0.00 | 0.00 | 0.00 | 89 | 1012.4 |
| 20260507000511 | 38 | 90 | 0.0 | 0.0 | 0.00 | 0.00 | 0.00 | 89 | 1012.3 |
| 20260507000011 | 38 | 90 | 0.0 | 0.0 | 0.00 | 0.00 | 0.00 | 89 | 1012.5 |
| 20260506235510 | 38 | 90 | 0.0 | 0.0 | 0.00 | 0.00 | 0.00 | 89 | 1012.4 |
| 20260506235011 | 38 | 90 | 0.0 | 0.0 | 0.00 | 0.00 | 0.00 | 89 | 1012.6 |
| 20260506234511 | 38 | 90 | 0.0 | 0.0 | 0.00 | 0.00 | 0.00 | 89 | 1012.5 |
| 20260506234011 | 38 | 90 | 0.0 | 0.0 | 0.00 | 0.00 | 0.00 | 89 | 1012.6 |
| 20260506233511 | 38 | 90 | 0.0 | 0.0 | 0.00 | 0.00 | 0.00 | 89 | 1012.5 |
| 20260506233011 | 38 | 90 | 0.0 | 0.0 | 0.00 | 0.00 | 0.00 | 88 | 1012.5 |
| 20260506232510 | 38 | 90 | 0.0 | 0.0 | 0.00 | 0.00 | 0.00 | 88 | 1012.6 |
| 20260506232011 | 38 | 105 | 0.0 | 0.0 | 0.00 | 0.00 | 0.00 | 88 | 1012.6 |
| 20260506231511 | 38 | 88 | 0.0 | 0.0 | 0.00 | 0.00 | 0.00 | 88 | 1012.6 |
| 20260506231011 | 38 | 22 | 0.0 | 0.0 | 0.00 | 0.00 | 0.00 | 88 | 1012.6 |
| 20260506230511 | 38 | 22 | 0.0 | 0.0 | 0.00 | 0.00 | 0.00 | 88 | 1012.7 |
| 20260506230014 | 39 | 22 | 0.0 | 0.0 | 0.00 | 0.00 | 0.00 | 88 | 1012.8 |
| 20260506225512 | 39 | 22 | 0.0 | 0.0 | 0.00 | 0.00 | 0.00 | 88 | 1012.8 |
| 20260506225011 | 39 | 22 | 0.0 | 0.0 | 0.00 | 0.00 | 0.00 | 88 | 1012.8 |
| 20260506224511 | 39 | 22 | 0.0 | 0.0 | 0.00 | 0.00 | 0.00 | 88 | 1012.8 |
| 20260506224010 | 39 | 22 | 0.0 | 0.0 | 0.00 | 0.00 | 0.00 | 88 | 1012.7 |
| 20260506223510 | 39 | 22 | 0.0 | 0.0 | 0.00 | 0.00 | 0.00 | 88 | 1012.7 |
| 20260506223011 | 39 | 22 | 0.0 | 0.0 | 0.00 | 0.00 | 0.00 | 88 | 1012.7 |
| 20260506222512 | 40 | 45 | 0.0 | 0.0 | 0.00 | 0.00 | 0.00 | 88 | 1012.9 |
| 20260506222012 | 40 | 45 | 0.0 | 0.0 | 0.00 | 0.00 | 0.00 | 88 | 1012.9 |
| 20260506221510 | 40 | 45 | 0.0 | 0.0 | 0.00 | 0.00 | 0.00 | 88 | 1012.9 |
| 20260506221014 | 40 | 45 | 0.0 | 0.0 | 0.00 | 0.00 | 0.00 | 88 | 1012.9 |
| 20260506220511 | 40 | 45 | 0.0 | 0.0 | 0.00 | 0.00 | 0.00 | 88 | 1012.9 |
| 20260506220010 | 40 | 45 | 0.0 | 0.0 | 0.00 | 0.00 | 0.00 | 87 | 1013.0 |
| 20260506215510 | 40 | 45 | 0.0 | 0.0 | 0.00 | 0.00 | 0.00 | 87 | 1012.9 |
| 20260506215011 | 40 | 45 | 0.0 | 0.0 | 0.00 | 0.00 | 0.00 | 87 | 1012.9 |
| 20260506214510 | 41 | 45 | 0.0 | 0.0 | 0.00 | 0.00 | 0.00 | 87 | 1012.9 |
| 20260506214011 | 41 | 45 | 0.0 | 0.0 | 0.00 | 0.00 | 0.00 | 87 | 1012.9 |
| 20260506213511 | 41 | 45 | 0.0 | 0.0 | 0.00 | 0.00 | 0.00 | 87 | 1012.9 |
| 20260506213011 | 41 | 45 | 0.0 | 0.0 | 0.00 | 0.00 | 0.00 | 87 | 1012.9 |
| 20260506212510 | 42 | 45 | 0.0 | 0.0 | 0.00 | 0.00 | 0.00 | 87 | 1012.9 |
| 20260506212011 | 42 | 45 | 0.0 | 0.0 | 0.00 | 0.00 | 0.00 | 87 | 1012.9 |
| 20260506211511 | 42 | 45 | 0.0 | 0.0 | 0.00 | 0.00 | 0.00 | 86 | 1012.9 |
| 20260506211011 | 42 | 45 | 0.0 | 0.0 | 0.00 | 0.00 | 0.00 | 86 | 1012.9 |
| 20260506210511 | 42 | 45 | 0.0 | 0.0 | 0.00 | 0.00 | 0.00 | 86 | 1013.0 |
| 20260506210010 | 42 | 45 | 0.0 | 0.0 | 0.00 | 0.00 | 0.00 | 86 | 1012.9 |
| 20260506205512 | 42 | 45 | 0.0 | 0.0 | 0.00 | 0.00 | 0.00 | 86 | 1012.9 |
| 20260506205011 | 43 | 45 | 0.0 | 0.0 | 0.00 | 0.00 | 0.00 | 86 | 1013.0 |
| 20260506204511 | 43 | 45 | 0.0 | 0.0 | 0.00 | 0.00 | 0.00 | 85 | 1012.9 |
| 20260506204011 | 43 | 45 | 0.0 | 0.0 | 0.00 | 0.00 | 0.00 | 85 | 1012.9 |
| 20260506203511 | 43 | 45 | 0.0 | 0.0 | 0.00 | 0.00 | 0.00 | 85 | 1012.9 |
| 20260506203012 | 43 | 45 | 0.0 | 0.0 | 0.00 | 0.00 | 0.00 | 85 | 1013.0 |
| 20260506202512 | 44 | 45 | 0.0 | 0.0 | 0.00 | 0.00 | 0.00 | 85 | 1012.9 |
| 20260506202011 | 44 | 45 | 0.0 | 0.0 | 0.00 | 0.00 | 0.00 | 85 | 1012.9 |
| 20260506201511 | 44 | 45 | 0.0 | 0.0 | 0.00 | 0.00 | 0.00 | 84 | 1012.9 |
| 20260506201010 | 44 | 45 | 0.0 | 0.0 | 0.00 | 0.00 | 0.00 | 84 | 1012.8 |
| 20260506200511 | 45 | 45 | 0.0 | 0.0 | 0.00 | 0.00 | 0.00 | 84 | 1012.7 |
| 20260506200010 | 45 | 45 | 0.0 | 0.0 | 0.00 | 0.00 | 0.00 | 83 | 1012.7 |
| 20260506195511 | 45 | 45 | 0.0 | 0.0 | 0.00 | 0.00 | 0.00 | 82 | 1012.6 |
| 20260506195011 | 45 | 45 | 0.0 | 0.0 | 0.00 | 0.00 | 0.00 | 82 | 1012.5 |
| 20260506194511 | 46 | 45 | 0.0 | 0.0 | 0.00 | 0.00 | 0.00 | 82 | 1012.6 |
| 20260506194010 | 46 | 45 | 0.0 | 0.0 | 0.00 | 0.00 | 0.00 | 81 | 1012.4 |
| 20260506193511 | 46 | 45 | 0.0 | 0.0 | 0.00 | 0.00 | 0.00 | 81 | 1012.3 |
| 20260506193012 | 47 | 45 | 0.0 | 0.0 | 0.00 | 0.00 | 0.00 | 80 | 1012.4 |
| 20260506192510 | 47 | 45 | 0.0 | 0.0 | 0.00 | 0.00 | 0.00 | 80 | 1012.3 |
| 20260506192011 | 47 | 45 | 0.0 | 0.0 | 0.00 | 0.00 | 0.00 | 80 | 1012.2 |
| 20260506191511 | 48 | 45 | 0.0 | 0.0 | 0.00 | 0.00 | 0.00 | 79 | 1012.2 |
| 20260506191013 | 48 | 45 | 0.0 | 0.0 | 0.00 | 0.00 | 0.00 | 79 | 1012.4 |
| 20260506190511 | 49 | 45 | 0.0 | 0.0 | 0.00 | 0.00 | 0.00 | 78 | 1012.3 |
| 20260506190010 | 49 | 45 | 0.0 | 0.0 | 0.00 | 0.00 | 0.00 | 78 | 1012.3 |
| 20260506185512 | 49 | 31 | 0.0 | 0.0 | 0.00 | 0.00 | 0.00 | 78 | 1012.2 |
| 20260506185013 | 50 | 158 | 0.0 | 0.0 | 0.00 | 0.00 | 0.00 | 77 | 1012.2 |
| 20260506184512 | 50 | 90 | 0.0 | 0.0 | 0.00 | 0.00 | 0.00 | 76 | 1012.2 |
| 20260506184012 | 51 | 112 | 0.0 | 0.0 | 0.00 | 0.00 | 0.00 | 75 | 1012.2 |
| 20260506183511 | 51 | 104 | 0.0 | 1.0 | 0.00 | 0.00 | 0.00 | 74 | 1012.2 |
| 20260506183011 | 51 | 90 | 0.0 | 0.0 | 0.00 | 0.00 | 0.00 | 74 | 1012.1 |
| 20260506182511 | 52 | 135 | 0.0 | 0.0 | 0.00 | 0.00 | 0.00 | 74 | 1012.1 |
| 20260506182010 | 52 | 338 | 0.0 | 0.0 | 0.00 | 0.00 | 0.00 | 73 | 1011.9 |
| 20260506181511 | 52 | 2 | 0.0 | 0.0 | 0.00 | 0.00 | 0.00 | 73 | 1011.8 |
| 20260506181011 | 52 | 22 | 0.0 | 0.0 | 0.00 | 0.00 | 0.00 | 73 | 1011.9 |
| 20260506180511 | 53 | 22 | 0.0 | 0.0 | 0.00 | 0.00 | 0.00 | 73 | 1011.9 |
| 20260506180011 | 53 | 11 | 0.0 | 0.0 | 0.00 | 0.00 | 0.00 | 73 | 1012.0 |
| 20260506175511 | 53 | 340 | 0.0 | 0.0 | 0.00 | 0.00 | 0.00 | 72 | 1011.9 |
| 20260506175011 | 53 | 325 | 0.0 | 0.0 | 0.00 | 0.00 | 0.00 | 72 | 1012.0 |
| 20260506174511 | 53 | 0 | 0.0 | 1.0 | 0.00 | 0.00 | 0.00 | 71 | 1012.0 |
| 20260506174010 | 53 | 21 | 0.0 | 0.0 | 0.00 | 0.00 | 0.00 | 71 | 1012.0 |
| 20260506173510 | 53 | 315 | 0.0 | 3.0 | 0.00 | 0.00 | 0.00 | 71 | 1012.0 |
| 20260506173010 | 53 | 68 | 0.0 | 2.0 | 0.00 | 0.00 | 0.00 | 70 | 1012.0 |
| 20260506172511 | 53 | 355 | 0.0 | 3.0 | 0.00 | 0.00 | 0.00 | 69 | 1012.1 |
| 20260506172010 | 54 | 6 | 1.0 | 5.0 | 0.00 | 0.00 | 0.00 | 69 | 1011.9 |
| 20260506171510 | 55 | 27 | 0.0 | 1.0 | 0.00 | 0.00 | 0.00 | 68 | 1012.1 |
| 20260506171010 | 56 | 325 | 1.0 | 3.0 | 0.00 | 0.00 | 0.00 | 67 | 1012.1 |
| 20260506170514 | 56 | 36 | 1.0 | 3.0 | 0.00 | 0.00 | 0.00 | 66 | 1012.1 |
| 20260506170009 | 57 | 36 | 0.0 | 6.0 | 0.00 | 0.00 | 0.00 | 65 | 1012.1 |
| 20260506165511 | 58 | 29 | 1.0 | 3.0 | 0.00 | 0.02 | 0.00 | 66 | 1012.1 |
| 20260506165011 | 58 | 34 | 2.0 | 5.0 | 0.00 | 0.04 | 0.00 | 65 | 1012.1 |
| 20260506164510 | 58 | 73 | 0.0 | 6.0 | 0.00 | 0.06 | 0.00 | 66 | 1012.1 |
| 20260506164011 | 58 | 5 | 2.0 | 6.0 | 0.00 | 0.08 | 0.00 | 66 | 1012.1 |
| 20260506163511 | 58 | 338 | 0.0 | 2.0 | 0.00 | 0.08 | 0.00 | 66 | 1011.9 |
| 20260506163011 | 59 | 29 | 2.0 | 5.0 | 0.00 | 0.08 | 0.00 | 65 | 1012.1 |
| 20260506162510 | 59 | 315 | 0.0 | 2.0 | 0.00 | 0.08 | 0.00 | 65 | 1012.1 |
| 20260506162011 | 59 | 0 | 1.0 | 3.0 | 0.00 | 0.08 | 0.00 | 65 | 1012.1 |
| 20260506161511 | 60 | 317 | 0.0 | 2.0 | 0.00 | 0.08 | 0.00 | 63 | 1012.0 |
| 20260506161012 | 60 | 21 | 1.0 | 5.0 | 0.00 | 0.08 | 0.00 | 62 | 1012.0 |
| 20260506160510 | 61 | 14 | 0.0 | 6.0 | 0.00 | 0.08 | 0.00 | 61 | 1012.1 |
| 20260506160010 | 61 | 147 | 0.0 | 2.0 | 0.00 | 0.08 | 0.00 | 63 | 1012.2 |
| 20260506155510 | 61 | 128 | 1.0 | 3.0 | 0.00 | 0.08 | 0.00 | 62 | 1012.2 |
| 20260506155009 | 61 | 2 | 1.0 | 2.0 | 0.00 | 0.08 | 0.00 | 62 | 1012.2 |
| 20260506154510 | 61 | 334 | 0.0 | 1.0 | 0.00 | 0.08 | 0.00 | 62 | 1012.3 |
| 20260506154012 | 61 | 303 | 1.0 | 5.0 | 0.00 | 0.08 | 0.00 | 63 | 1012.3 |
| 20260506153511 | 60 | 336 | 0.0 | 2.0 | 0.00 | 0.08 | 0.00 | 63 | 1012.4 |
| 20260506153010 | 61 | 6 | 0.0 | 1.0 | 0.00 | 0.08 | 0.00 | 62 | 1012.2 |
| 20260506152509 | 61 | 332 | 1.0 | 6.0 | 0.00 | 0.08 | 0.00 | 62 | 1012.3 |
| 20260506152010 | 61 | 336 | 0.0 | 6.0 | 0.00 | 0.08 | 0.00 | 61 | 1012.3 |
| 20260506151511 | 61 | 338 | 1.0 | 5.0 | 0.00 | 0.08 | 0.00 | 61 | 1012.3 |
| 20260506151013 | 61 | 342 | 1.0 | 3.0 | 0.00 | 0.08 | 0.00 | 62 | 1012.3 |
| 20260506150511 | 61 | 335 | 1.0 | 5.0 | 0.00 | 0.08 | 0.00 | 62 | 1012.3 |
| 20260506150010 | 61 | 321 | 1.0 | 12.0 | 0.00 | 0.08 | 0.00 | 62 | 1012.4 |
| 20260506145511 | 61 | 331 | 1.0 | 5.0 | 0.00 | 0.08 | 0.00 | 63 | 1012.4 |
| 20260506145010 | 60 | 23 | 1.0 | 5.0 | 0.00 | 0.08 | 0.00 | 64 | 1012.4 |
| 20260506144510 | 60 | 279 | 0.0 | 3.0 | 0.00 | 0.08 | 0.00 | 65 | 1012.5 |
| 20260506144010 | 59 | 6 | 1.0 | 6.0 | 0.00 | 0.08 | 0.00 | 65 | 1012.6 |
| 20260506143510 | 59 | 341 | 1.0 | 3.0 | 0.00 | 0.08 | 0.00 | 66 | 1012.6 |
| 20260506143010 | 58 | 19 | 1.0 | 2.0 | 0.00 | 0.08 | 0.00 | 66 | 1012.8 |
| 20260506142511 | 58 | 45 | 0.0 | 2.0 | 0.00 | 0.08 | 0.00 | 64 | 1012.8 |
| 20260506142010 | 59 | 28 | 0.0 | 0.0 | 0.00 | 0.08 | 0.00 | 63 | 1012.7 |
| 20260506141510 | 60 | 338 | 0.0 | 2.0 | 0.00 | 0.08 | 0.00 | 62 | 1012.7 |
| 20260506141010 | 61 | 26 | 0.0 | 2.0 | 0.00 | 0.08 | 0.00 | 61 | 1012.7 |
| 20260506140511 | 62 | 1 | 0.0 | 1.0 | 0.00 | 0.08 | 0.00 | 61 | 1012.7 |
| 20260506140010 | 63 | 183 | 1.0 | 3.0 | 0.00 | 0.08 | 0.00 | 62 | 1012.7 |
| 20260506135510 | 62 | 175 | 1.0 | 5.0 | 0.00 | 0.08 | 0.00 | 61 | 1012.8 |
| 20260506135011 | 62 | 325 | 0.0 | 1.0 | 0.00 | 0.08 | 0.00 | 61 | 1012.8 |
| 20260506134510 | 62 | 52 | 0.0 | 1.0 | 0.00 | 0.08 | 0.00 | 62 | 1012.8 |
| 20260506134010 | 62 | 45 | 0.0 | 0.0 | 0.00 | 0.08 | 0.00 | 61 | 1012.8 |
| 20260506133510 | 62 | 22 | 0.0 | 3.0 | 0.00 | 0.08 | 0.00 | 61 | 1012.8 |
| 20260506133011 | 62 | 16 | 0.0 | 3.0 | 0.00 | 0.08 | 0.00 | 60 | 1012.9 |
| 20260506132513 | 62 | 291 | 0.0 | 2.0 | 0.00 | 0.08 | 0.00 | 60 | 1012.8 |
| 20260506132010 | 62 | 327 | 0.0 | 0.0 | 0.00 | 0.08 | 0.00 | 59 | 1012.9 |
| 20260506131511 | 63 | 348 | 0.0 | 7.0 | 0.00 | 0.08 | 0.00 | 59 | 1012.7 |
| 20260506131011 | 63 | 43 | 1.0 | 7.0 | 0.00 | 0.08 | 0.00 | 60 | 1012.8 |
| 20260506130510 | 63 | 36 | 0.0 | 6.0 | 0.00 | 0.08 | 0.00 | 60 | 1012.7 |
| 20260506130010 | 62 | 354 | 0.0 | 2.0 | 0.00 | 0.08 | 0.00 | 60 | 1012.8 |
| 20260506125510 | 62 | 350 | 0.0 | 1.0 | 0.00 | 0.08 | 0.00 | 61 | 1012.8 |
| 20260506125010 | 62 | 17 | 0.0 | 2.0 | 0.00 | 0.08 | 0.00 | 62 | 1012.7 |
| 20260506124511 | 61 | 68 | 0.0 | 1.0 | 0.00 | 0.08 | 0.00 | 61 | 1012.8 |
| 20260506124011 | 61 | 129 | 0.0 | 0.0 | 0.00 | 0.08 | 0.00 | 61 | 1012.7 |
| 20260506123510 | 61 | 120 | 0.0 | 3.0 | 0.00 | 0.08 | 0.00 | 61 | 1012.8 |
| 20260506123011 | 61 | 22 | 1.0 | 3.0 | 0.00 | 0.10 | 0.00 | 61 | 1012.7 |
| 20260506122512 | 60 | 30 | 0.0 | 3.0 | 0.00 | 0.12 | 0.00 | 63 | 1012.8 |
| 20260506122010 | 59 | 282 | 0.0 | 0.0 | 0.00 | 0.12 | 0.00 | 64 | 1012.6 |
| 20260506121510 | 59 | 0 | 0.0 | 0.0 | 0.00 | 0.12 | 0.00 | 64 | 1012.7 |
| 20260506121010 | 58 | 16 | 0.0 | 0.0 | 0.00 | 0.14 | 0.00 | 64 | 1012.8 |
| 20260506120511 | 59 | 307 | 0.0 | 0.0 | 0.00 | 0.14 | 0.00 | 63 | 1012.8 |
| 20260506120010 | 59 | 0 | 0.0 | 0.0 | 0.00 | 0.14 | 0.00 | 61 | 1012.7 |
| 20260506115510 | 59 | 22 | 0.0 | 3.0 | 0.00 | 0.14 | 0.00 | 60 | 1012.7 |
| 20260506115011 | 60 | 301 | 0.0 | 2.0 | 0.00 | 0.14 | 0.00 | 59 | 1012.7 |
| 20260506114510 | 62 | 22 | 0.0 | 0.0 | 0.00 | 0.14 | 0.00 | 57 | 1012.8 |
| 20260506114010 | 64 | 45 | 0.0 | 3.0 | 0.00 | 0.14 | 0.00 | 56 | 1012.7 |
| 20260506113509 | 66 | 18 | 0.0 | 2.0 | 0.00 | 0.16 | 0.00 | 55 | 1012.8 |
| 20260506113010 | 67 | 344 | 1.0 | 6.0 | 0.00 | 0.16 | 0.00 | 54 | 1012.6 |
| 20260506112510 | 67 | 31 | 0.0 | 6.0 | 0.00 | 0.16 | 0.00 | 54 | 1012.5 |
| 20260506112010 | 67 | 1 | 0.0 | 2.0 | 0.00 | 0.16 | 0.00 | 56 | 1012.7 |
| 20260506111510 | 66 | 132 | 0.0 | 1.0 | 0.00 | 0.16 | 0.00 | 59 | 1012.6 |
| 20260506111010 | 64 | 237 | 0.0 | 5.0 | 0.00 | 0.16 | 0.00 | 58 | 1012.7 |
| 20260506110510 | 64 | 6 | 0.0 | 7.0 | 0.00 | 0.16 | 0.00 | 57 | 1012.8 |
| 20260506110009 | 65 | 27 | 1.0 | 5.0 | 0.00 | 0.16 | 0.00 | 58 | 1012.9 |
| 20260506105510 | 65 | 331 | 1.0 | 5.0 | 0.00 | 0.16 | 0.00 | 59 | 1012.5 |
| 20260506105010 | 64 | 22 | 1.0 | 5.0 | 0.00 | 0.16 | 0.00 | 59 | 1012.6 |
| 20260506104511 | 63 | 19 | 0.0 | 2.0 | 0.00 | 0.16 | 0.00 | 59 | 1012.6 |
| 20260506104009 | 63 | 0 | 0.0 | 0.0 | 0.00 | 0.16 | 0.00 | 58 | 1012.6 |
| 20260506103510 | 64 | 336 | 0.0 | 3.0 | 0.00 | 0.16 | 0.00 | 58 | 1012.6 |
| 20260506103009 | 63 | 247 | 0.0 | 3.0 | 0.00 | 0.16 | 0.00 | 59 | 1012.6 |
| 20260506102510 | 63 | 2 | 1.0 | 6.0 | 0.00 | 0.16 | 0.00 | 60 | 1012.7 |
| 20260506102010 | 62 | 0 | 0.0 | 0.0 | 0.00 | 0.16 | 0.00 | 58 | 1012.6 |
| 20260506101510 | 63 | 358 | 1.0 | 3.0 | 0.00 | 0.16 | 0.00 | 57 | 1012.8 |
| 20260506101013 | 64 | 45 | 0.0 | 0.0 | 0.00 | 0.16 | 0.00 | 59 | 1012.6 |
| 20260506100510 | 64 | 315 | 0.0 | 2.0 | 0.00 | 0.16 | 0.00 | 59 | 1012.5 |
| 20260506100010 | 63 | 291 | 0.0 | 0.0 | 0.00 | 0.16 | 0.00 | 61 | 1012.5 |
| 20260506095510 | 62 | 0 | 0.0 | 1.0 | 0.00 | 0.16 | 0.00 | 61 | 1012.5 |
| 20260506095011 | 62 | 353 | 0.0 | 0.0 | 0.00 | 0.16 | 0.00 | 61 | 1012.5 |
| 20260506094509 | 62 | 22 | 0.0 | 0.0 | 0.00 | 0.16 | 0.00 | 61 | 1012.6 |
| 20260506094010 | 62 | 0 | 0.0 | 0.0 | 0.00 | 0.16 | 0.00 | 61 | 1012.5 |
| 20260506093510 | 62 | 338 | 0.0 | 0.0 | 0.00 | 0.16 | 0.00 | 61 | 1012.6 |
| 20260506093010 | 62 | 22 | 0.0 | 0.0 | 0.00 | 0.16 | 0.00 | 61 | 1012.7 |
| 20260506092509 | 62 | 0 | 0.0 | 1.0 | 0.00 | 0.16 | 0.00 | 62 | 1012.5 |
| 20260506092009 | 61 | 338 | 1.0 | 3.0 | 0.00 | 0.16 | 0.00 | 61 | 1012.5 |
| 20260506091509 | 61 | 338 | 0.0 | 2.0 | 0.00 | 0.16 | 0.00 | 61 | 1012.5 |
| 20260506091011 | 62 | 90 | 0.0 | 0.0 | 0.00 | 0.16 | 0.00 | 60 | 1012.5 |
| 20260506090513 | 62 | 141 | 0.0 | 0.0 | 0.00 | 0.16 | 0.00 | 60 | 1012.4 |
| 20260506090009 | 63 | 45 | 0.0 | 0.0 | 0.00 | 0.16 | 0.00 | 60 | 1012.4 |
| 20260506085510 | 63 | 0 | 0.0 | 0.0 | 0.00 | 0.16 | 0.00 | 58 | 1012.4 |
| 20260506085010 | 64 | 51 | 0.0 | 3.0 | 0.00 | 0.16 | 0.00 | 57 | 1012.5 |
| 20260506084509 | 65 | 3 | 0.0 | 3.0 | 0.00 | 0.16 | 0.00 | 56 | 1012.4 |
| 20260506084010 | 66 | 22 | 0.0 | 1.0 | 0.00 | 0.16 | 0.00 | 57 | 1012.4 |
| 20260506083510 | 66 | 315 | 0.0 | 0.0 | 0.00 | 0.16 | 0.00 | 57 | 1012.5 |
| 20260506083009 | 66 | 292 | 0.0 | 5.0 | 0.00 | 0.16 | 0.00 | 58 | 1012.4 |
| 20260506082510 | 65 | 182 | 1.0 | 6.0 | 0.00 | 0.16 | 0.00 | 58 | 1012.5 |
| 20260506082011 | 66 | 160 | 0.0 | 2.0 | 0.00 | 0.16 | 0.00 | 57 | 1012.4 |
| 20260506081510 | 67 | 292 | 0.0 | 1.0 | 0.00 | 0.16 | 0.00 | 56 | 1012.4 |
| 20260506081009 | 68 | 22 | 0.0 | 1.0 | 0.00 | 0.16 | 0.00 | 55 | 1012.4 |
| 20260506080511 | 68 | 90 | 0.0 | 0.0 | 0.00 | 0.16 | 0.00 | 56 | 1012.4 |
| 20260506073510 | 70 | 248 | 0.0 | 0.0 | 0.00 | 0.16 | 0.00 | 59 | 1012.2 |
| 20260506073009 | 69 | 338 | 0.0 | 0.0 | 0.00 | 0.16 | 0.00 | 60 | 1012.2 |
| 20260506072509 | 69 | 265 | 0.0 | 0.0 | 0.00 | 0.16 | 0.00 | 63 | 1012.3 |
| 20260506072010 | 67 | 22 | 0.0 | 0.0 | 0.00 | 0.16 | 0.00 | 67 | 1012.2 |
| 20260506071509 | 65 | 135 | 0.0 | 0.0 | 0.00 | 0.16 | 0.00 | 72 | 1012.2 |
| 20260506071009 | 61 | 158 | 0.0 | 0.0 | 0.00 | 0.16 | 0.00 | 83 | 1012.2 |
| 20260506070509 | 57 | 158 | 0.0 | 0.0 | 0.00 | 0.16 | 0.00 | 92 | 1012.2 |
| 20260506062510 | 47 | 158 | 0.0 | 0.0 | 0.00 | 0.16 | 0.00 | 94 | 1012.1 |
| 20260506062010 | 44 | 158 | 0.0 | 0.0 | 0.00 | 0.16 | 0.00 | 93 | 1012.1 |
| 20260506061509 | 43 | 158 | 0.0 | 0.0 | 0.00 | 0.16 | 0.00 | 93 | 1011.9 |
| 20260506061011 | 42 | 158 | 0.0 | 0.0 | 0.00 | 0.16 | 0.00 | 93 | 1011.9 |
| 20260506060510 | 42 | 158 | 0.0 | 0.0 | 0.00 | 0.16 | 0.00 | 92 | 1012.0 |
| 20260506051010 | 40 | 68 | 0.0 | 0.0 | 0.00 | 0.16 | 0.00 | 92 | 1011.8 |
| 20260506050513 | 40 | 68 | 0.0 | 0.0 | 0.00 | 0.16 | 0.00 | 92 | 1011.8 |
| 20260506045011 | 41 | 68 | 0.0 | 0.0 | 0.00 | 0.18 | 0.00 | 92 | 1011.9 |
| 20260506044509 | 41 | 68 | 0.0 | 0.0 | 0.00 | 0.18 | 0.00 | 92 | 1011.8 |